[[{"header":{"parameterUnit":"m.s-1","parameterCategory":1,"la1":30.2991,"la2":30.254,"lo1":-89.0895,"lo2":-89.0444,"dy":0.0017,"dx":0.0017,"nx":28,"ny":28,"refTime":"2023-08-13T21:00:00:Z","depth":0,"parameterNumber":2,"parameterNumberName":"U-component_of_WINDS"},"data":[0,0,0,0,0,0,0,0,0,0,0,0,0,0,0,0,0,0,0,0,0,0,0,0,0,0,0,0,0,0,0,0,0,0,0,0,0,0,0,0,0,0,0,0,0,0,0,0,0,0,0,0,0,0,0,0,0,0,1.1075,1.1076,0,1.121,1.1212,1.1213,1.1244,1.1243,1.1242,1.1241,1.1385,1.139,1.1395,0,0,0,0,0,0,0,0,0,0,0,0,0,1.0849,1.0853,1.1075,1.1077,1.1078,1.121,1.1212,1.1214,1.1244,1.1243,1.1242,1.1241,1.1384,1.1389,1.1395,0,0,0,0,0,0,0,0,0,0,0,0,0,1.0962,1.0854,1.1075,1.1109,1.1114,1.121,1.1212,1.1214,1.1244,1.1243,1.1242,1.124,1.1382,1.1389,1.1396,1.1469,0,0,1.1418,1.1421,0,0,0,0,0,0,0,0,1.0956,1.097,1.1103,1.1107,1.1112,1.1209,1.1185,1.13,1.1245,1.1195,1.1241,1.124,1.1328,1.134,1.1368,1.1475,1.1481,1.1418,1.1422,1.1426,1.1428,0,0,0,0,0,0,0,1.0948,1.0965,1.1129,1.1104,1.111,1.112,1.1134,1.1207,1.1268,1.1199,1.1202,1.1217,1.1331,1.1361,1.1372,1.1484,1.1418,1.1424,1.1429,1.1431,1.1659,1.166,0,0,0,0,0,0,1.0933,1.0958,1.1124,1.1133,1.1028,1.1125,1.1141,1.1179,1.1267,1.1279,1.1218,1.1218,1.135,1.1364,1.1377,1.1469,1.1425,1.1432,1.1436,1.1657,1.1659,1.1661,0,0,0,0,0,0,1.0928,1.0947,1.1119,1.1046,1.1069,1.1131,1.1173,1.1183,1.1213,1.1282,1.1293,1.1238,1.1349,1.1367,1.1446,1.1474,1.1435,1.1442,1.1655,1.1658,1.166,1.1652,0,0,0,0,0,0,1.0921,1.0945,1.0972,1.1046,1.1072,1.1183,1.1175,1.1186,1.1225,1.1226,1.1303,1.1315,1.135,1.1435,1.1453,1.1483,1.1447,1.1653,1.1656,1.1659,1.165,1.1654,1.1658,0,0,0,0,0,1.0913,1.0966,1.0973,1.0993,1.1107,1.1185,1.12,1.1237,1.1227,1.1256,1.13,1.1312,1.1468,1.1442,1.1463,1.1496,1.1651,1.1655,1.1659,1.1649,1.1654,1.1658,0,0,0,0,0,0,1.0895,1.0976,1.0986,1.1063,1.1117,1.119,1.1227,1.1241,1.13,1.1299,1.1344,1.1361,1.1437,1.1475,1.1445,1.1572,1.156,1.1568,1.1545,1.155,1.1554,1.1543,1.1453,0,0,0,0,0,1.09,1.0955,1.1023,1.1085,1.1111,1.1164,1.12,1.1224,1.1282,1.1305,1.1355,1.1412,1.1474,1.1514,1.1575,1.1656,1.1674,1.1689,1.1693,1.1695,1.1702,1.1749,1.1757,1.1674,1.1674,1.1674,0,0,1.0911,1.0962,1.0994,1.1083,1.1127,1.1185,1.1183,1.1244,1.1288,1.1315,1.1392,1.143,1.1497,1.1577,1.1615,1.1611,1.1729,1.1701,1.1702,1.1708,1.1754,1.1762,1.1769,1.1677,1.1676,1.1676,0,0,1.0961,1.1004,1.1061,1.1105,1.1171,1.1206,1.122,1.1291,1.1317,1.1394,1.1416,1.147,1.1575,1.1623,1.166,1.1728,1.1743,1.1747,1.1767,1.1812,1.1819,1.1825,1.185,1.1859,1.1754,1.1754,1.1754,0,1.0966,1.1052,1.1089,1.1148,1.1188,1.1213,1.1272,1.1314,1.1397,1.1425,1.1418,1.1551,1.1598,1.1691,1.1707,1.1736,1.1755,1.1739,1.1815,1.1821,1.1827,1.1852,1.1861,1.1754,1.1754,1.1754,1.1754,0,1.1056,1.1116,1.1154,1.1232,1.1276,1.1335,1.1382,1.1422,1.1443,1.1479,1.1558,1.1616,1.1689,1.1712,1.1733,1.1808,1.1803,1.1805,1.1794,1.1835,1.1859,1.1868,1.1754,1.1754,1.1754,1.1754,0,0,1.1099,1.1196,1.121,1.1246,1.1321,1.1369,1.143,1.15,1.1534,1.1591,1.1645,1.1733,1.1735,1.1778,1.1805,1.1845,1.1896,1.1842,1.1844,1.1851,1.1983,1.1982,1.1992,1.1906,1.1908,1.1909,1.1978,0,1.1158,1.1266,1.1301,1.1392,1.1448,1.1473,1.1527,1.158,1.1615,1.167,1.171,1.1772,1.177,1.1796,1.1836,1.1881,1.1924,1.1877,1.1958,1.196,1.1941,1.2004,1.2003,1.2065,1.1988,1.1989,1.199,0,1.1242,1.1298,1.1394,1.1463,1.1488,1.1535,1.1602,1.1653,1.1715,1.1738,1.1786,1.181,1.1877,1.1861,1.1954,1.1922,1.1957,1.1984,1.1988,1.1997,1.1978,1.2017,1.2086,1.2095,1.2005,1.2004,1.2003,0,1.1264,1.1364,1.1435,1.1465,1.1547,1.158,1.1616,1.1676,1.1716,1.1775,1.1802,1.1869,1.1906,1.1958,1.2,1.1985,1.2091,1.2078,1.2114,1.2113,1.2135,1.2134,1.2212,1.2157,1.2157,1.2157,1.2156,0,1.1327,1.1385,1.1446,1.1489,1.1556,1.1596,1.1661,1.1699,1.1752,1.1805,1.1831,1.1881,1.1932,1.1989,1.2023,1.2096,1.2112,1.2134,1.2143,1.2133,1.213,1.2157,1.2154,1.2159,1.2159,1.2158,1.2158,0,1.1363,1.1406,1.1485,1.1556,1.1575,1.1621,1.1682,1.1727,1.1763,1.183,1.1848,1.1906,1.1974,1.2021,1.2109,1.2131,1.2211,1.2218,1.2189,1.2193,1.2227,1.2223,1.2326,1.2342,1.2275,1.2276,1.2276,0,1.1401,1.1446,1.1521,1.1557,1.1593,1.1651,1.1692,1.1734,1.1776,1.1849,1.1885,1.1955,1.2012,1.212,1.2172,1.224,1.2249,1.2281,1.226,1.2248,1.2251,1.2248,1.2253,1.2284,1.2284,1.2285,1.2285,0,1.1464,1.1483,1.1539,1.1604,1.1651,1.1704,1.1758,1.1786,1.1838,1.1884,1.1953,1.1998,1.2087,1.2156,1.2229,1.2268,1.2286,1.2291,1.2303,1.2293,1.2275,1.2286,1.2199,1.2289,1.2288,1.2288,1.2288,1.2288,1.1503,1.1544,1.1603,1.1666,1.171,1.176,1.1805,1.1847,1.1904,1.1979,1.2001,1.2073,1.2135,1.2234,1.2274,1.2332,1.233,1.2347,1.2352,1.2355,1.2356,1.2265,1.2346,1.2346,1.2346,1.2346,1.2346,0,1.1567,1.1607,1.1664,1.1737,1.1787,1.1797,1.1857,1.1899,1.1961,1.2016,1.2072,1.2152,1.222,1.2276,1.2346,1.2382,1.2392,1.2399,1.2397,1.2406,1.2353,1.2336,1.239,1.239,1.239,1.239,1.239,1.239,1.1607,1.1678,1.1704,1.1798,1.1837,1.1907,1.194,1.1987,1.2031,1.2118,1.2174,1.2209,1.2266,1.234,1.2403,1.2418,1.2443,1.2448,1.2466,1.2415,1.241,1.2405,1.2389,1.2453,1.2453,1.2514,1.2514,1.2515]},{"header":{"parameterUnit":"m.s-1","parameterCategory":1,"la1":30.2991,"la2":30.254,"lo1":-89.0895,"lo2":-89.0444,"dy":0.0017,"dx":0.0017,"nx":28,"ny":28,"refTime":"2023-08-13T21:00:00:Z","depth":0,"parameterNumber":3,"parameterNumberName":"V-component_of_WINDS"},"data":[0,0,0,0,0,0,0,0,0,0,0,0,0,0,0,0,0,0,0,0,0,0,0,0,0,0,0,0,0,0,0,0,0,0,0,0,0,0,0,0,0,0,0,0,0,0,0,0,0,0,0,0,0,0,0,0,0,0,2.9391,2.9391,0,2.9405,2.9405,2.9406,2.9427,2.9428,2.9428,2.9429,2.944,2.944,2.944,0,0,0,0,0,0,0,0,0,0,0,0,0,2.9377,2.9378,2.9391,2.9391,2.9391,2.9405,2.9405,2.9406,2.9427,2.9428,2.9428,2.9429,2.944,2.944,2.944,0,0,0,0,0,0,0,0,0,0,0,0,0,2.9387,2.9378,2.9391,2.9404,2.9405,2.9405,2.9405,2.9406,2.9427,2.9428,2.9428,2.9429,2.944,2.944,2.944,2.9428,0,0,2.944,2.944,0,0,0,0,0,0,0,0,2.9386,2.9387,2.9402,2.9403,2.9404,2.9415,2.9405,2.9413,2.9427,2.9419,2.9429,2.9429,2.9431,2.9432,2.9433,2.9428,2.9429,2.944,2.944,2.944,2.944,0,0,0,0,0,0,0,2.9385,2.9387,2.9397,2.9402,2.9404,2.9407,2.9409,2.9407,2.9421,2.942,2.9421,2.9423,2.9432,2.9433,2.9434,2.9429,2.944,2.944,2.944,2.944,2.9411,2.941,0,0,0,0,0,0,2.9383,2.9386,2.9396,2.9397,2.9397,2.9407,2.9409,2.9411,2.9422,2.9424,2.9422,2.9424,2.9433,2.9434,2.9434,2.9418,2.944,2.944,2.944,2.9411,2.941,2.941,0,0,0,0,0,0,2.9383,2.9384,2.9395,2.9392,2.9394,2.9407,2.9409,2.9411,2.9412,2.9424,2.9426,2.9421,2.9434,2.9434,2.9429,2.9419,2.944,2.944,2.9412,2.9411,2.941,2.9386,0,0,0,0,0,0,2.9383,2.9384,2.9381,2.9392,2.9394,2.9391,2.9408,2.9411,2.9413,2.9415,2.9423,2.9425,2.9434,2.9429,2.9428,2.9419,2.944,2.9413,2.9412,2.941,2.9388,2.9385,2.9382,0,0,0,0,0,2.9382,2.9373,2.938,2.9381,2.939,2.9391,2.9392,2.9403,2.9412,2.9407,2.9414,2.9425,2.942,2.9428,2.9428,2.9418,2.9414,2.9412,2.9411,2.9389,2.9385,2.9382,0,0,0,0,0,0,2.936,2.9375,2.9383,2.9378,2.9383,2.9394,2.9389,2.9399,2.9401,2.9402,2.9416,2.9417,2.9409,2.9413,2.9422,2.9405,2.9418,2.9417,2.9402,2.9398,2.9395,2.9393,2.9439,0,0,0,0,0,2.9355,2.9356,2.9368,2.9362,2.9364,2.9376,2.9377,2.9385,2.939,2.9392,2.9399,2.9402,2.9401,2.94,2.94,2.9389,2.9389,2.9382,2.9379,2.9376,2.9374,2.9365,2.9361,2.9404,2.9404,2.9404,0,0,2.9344,2.9352,2.9352,2.9358,2.9363,2.9361,2.9378,2.9376,2.9374,2.9392,2.9386,2.9391,2.9395,2.9386,2.9382,2.9389,2.9362,2.9374,2.9372,2.9371,2.9363,2.9359,2.9355,2.9403,2.9404,2.9404,0,0,2.9323,2.933,2.9325,2.9329,2.9336,2.9343,2.9342,2.9351,2.9355,2.935,2.9362,2.936,2.9359,2.936,2.9361,2.9337,2.9346,2.9337,2.9319,2.931,2.9307,2.9304,2.9292,2.9288,2.9335,2.9335,2.9335,0,2.9308,2.9307,2.9321,2.9317,2.9318,2.9335,2.9328,2.9331,2.9337,2.9336,2.9344,2.9341,2.9346,2.9335,2.9329,2.933,2.9327,2.9335,2.9307,2.9304,2.9301,2.929,2.9286,2.9334,2.9334,2.9334,2.9334,0,2.9287,2.9286,2.928,2.9286,2.9286,2.9281,2.9292,2.9291,2.9299,2.9305,2.9297,2.9303,2.9303,2.9301,2.9309,2.9291,2.9295,2.9305,2.9318,2.9295,2.9285,2.9281,2.9332,2.9332,2.9333,2.9333,0,0,2.9253,2.9265,2.9262,2.9263,2.9271,2.927,2.9264,2.9264,2.9261,2.9265,2.9258,2.9256,2.9264,2.9265,2.9273,2.9265,2.9242,2.9275,2.9276,2.9266,2.9218,2.9209,2.9204,2.9248,2.9247,2.9247,2.9217,0,2.9232,2.9224,2.9234,2.9223,2.922,2.9235,2.9229,2.9232,2.9237,2.9234,2.9239,2.9236,2.9249,2.9249,2.9242,2.9246,2.9232,2.9249,2.9239,2.9239,2.9236,2.9199,2.919,2.9162,2.9213,2.9213,2.9212,0,2.9206,2.9207,2.9196,2.9201,2.92,2.9196,2.9195,2.9193,2.9195,2.9199,2.9198,2.9207,2.9199,2.9214,2.9201,2.9212,2.9209,2.921,2.9209,2.9207,2.9223,2.9193,2.9153,2.9148,2.9207,2.9207,2.9207,0,2.9179,2.9178,2.917,2.9171,2.9178,2.9174,2.9176,2.9179,2.9178,2.9177,2.9175,2.9173,2.9171,2.9169,2.9176,2.9186,2.9161,2.9177,2.9161,2.9161,2.9154,2.9154,2.911,2.9156,2.9156,2.9156,2.9156,0,2.9153,2.9144,2.9158,2.9153,2.9143,2.9154,2.9143,2.9147,2.9149,2.9143,2.9155,2.9149,2.916,2.9154,2.916,2.9146,2.9146,2.9147,2.9148,2.9145,2.9144,2.9141,2.9142,2.9155,2.9155,2.9156,2.9156,0,2.9121,2.913,2.9122,2.9129,2.913,2.9122,2.9127,2.9121,2.9126,2.9118,2.9116,2.9124,2.9117,2.9124,2.9119,2.9122,2.9103,2.9108,2.9102,2.9103,2.9086,2.9086,2.9036,2.9029,2.9082,2.9082,2.9081,0,2.9103,2.9097,2.9102,2.9099,2.9101,2.9097,2.9095,2.9105,2.9102,2.9102,2.9095,2.909,2.9086,2.9074,2.9077,2.9072,2.9075,2.9058,2.9074,2.907,2.9071,2.907,2.9068,2.9054,2.9053,2.9053,2.9053,0,2.9069,2.9073,2.907,2.9068,2.9065,2.9064,2.9063,2.906,2.907,2.9066,2.9059,2.9056,2.9049,2.9042,2.9037,2.9037,2.9045,2.9048,2.9043,2.9038,2.9033,2.9032,2.909,2.9048,2.9049,2.9049,2.9049,2.9049,2.9042,2.9035,2.9037,2.9033,2.9033,2.9032,2.9026,2.9029,2.9024,2.902,2.9026,2.9016,2.9015,2.9009,2.9008,2.8999,2.9006,2.9001,2.8999,2.8997,2.8992,2.9037,2.8999,2.8999,2.8999,2.8999,2.8999,0,2.9006,2.9007,2.9003,2.9001,2.8997,2.9006,2.9005,2.9,2.8992,2.8991,2.8986,2.8976,2.8968,2.8971,2.8963,2.8955,2.8958,2.8953,2.8952,2.8951,2.8989,2.8992,2.895,2.895,2.895,2.895,2.895,2.895,2.8986,2.8975,2.8979,2.8966,2.8968,2.8959,2.8957,2.8954,2.8953,2.8942,2.8936,2.8937,2.8936,2.8928,2.892,2.8921,2.8916,2.8908,2.891,2.8944,2.8949,2.8954,2.8957,2.8908,2.8908,2.8873,2.8872,2.8872]}]]